カタログに戻る

STARLINK-34552

運用中通信VLEO
NORAD 64731·PAYLOAD·🇺🇸 United States

打ち上げ Jul 2, 2025 から Cape Canaveral Space Force Station

Loading…

次のパス (今後24時間)

TLE

最新Source: CelesTrak SupGP

元期: Sep 14, 2026, 21:42 UTC

1 64731C 25144H   26257.90465278  .00009462  00000+0  27965-3 0  2579
2 64731  53.1601  20.0886 0001222  82.9731 171.0277 15.34374544    16

AllMySatでSTARLINK-34552をリアルタイム追跡

Download on the App Store